Location: Warszawa
(52.2322°N, 21.0083°E)
Time: 01:23:39
(UTC+02:00)

ISS - Pass Details

Date: 27 March 2019
Orbit: 408 x 410 km, 51.6° (Epoch: 19 April)

Event Time Altitude Azimuth Distance (km) Brightness Sun altitude
Rises 20:10:12 0° 267° (W) 2,338 0.9 -19.4°
Reaches altitude 10° 20:12:18 10° 267° (W) 1,476 -0.2 -19.7°
Enters shadow 20:15:25 76° 238° (WSW) 427 -3.8 -20.1°
